{"data":{"norad_id":64514,"epoch":"2026-09-21T18:04:28.277184Z","epoch_age_seconds":74016,"freshness":"FRESH","line1":"1 64514U 25134Q   26264.75310506  .00000484  00000+0  92476-4 0  9999","line2":"2 64514  51.8979  71.0434 0000943 119.9165 240.1892 14.79933040 69313","mean_motion":14.7993304,"eccentricity":9.43e-5,"inclination_deg":51.8979,"raan_deg":71.0434,"arg_perigee_deg":119.9165,"mean_anomaly_deg":240.1892,"bstar":9.2476e-5,"rev_number":6931,"period_min":97.301699541758,"perigee_km":628.87467938788,"apogee_km":630.19632642193,"semimajor_km":7007.6725029049,"source":"CELESTRAK","updated_at":"2026-09-22T09:00:29.810076Z"}}